{"data":{"norad_id":58881,"intl_designator":"2024-020F","name":"STARLINK-31260","alt_names":[],"object_type":"PAYLOAD","status":"ACTIVE","operator":null,"country":"US","launch_date":"2024-01-29","launch_site_code":"AFWTR","launch_vehicle":null,"mission":null,"orbit_class":"UNKNOWN","rcs_meters":null,"size_class":null,"mass_kg":null,"dimensions":null,"purposes":["comms"],"wikipedia_slug":null,"has_3d_model":false,"image_url":null,"decayed_at":null,"tle_current":{"epoch":"2026-05-24T09:27:02.681856Z","epoch_age_seconds":121412,"freshness":"FRESH","line1":"1 58881U 24020F   26144.39378104  .00344192  00000+0  10685-1 0  9993","line2":"2 58881  53.1595 330.6491 0002796 125.3048 234.8215 15.31446657129664","mean_motion":15.31446657,"eccentricity":0.0002796,"inclination_deg":53.1595,"raan_deg":330.6491,"arg_perigee_deg":125.3048,"mean_anomaly_deg":234.8215,"bstar":0.010685,"rev_number":12966,"period_min":94.028740303685,"perigee_km":469.58014444149,"apogee_km":473.41045882457,"semimajor_km":6849.632301633,"source":"CELESTRAK","updated_at":"2026-05-25T13:38:18.784304Z"}}}